Knob Noster, MO

7:07 PM CST on February 10, 2016 (GMT -0600)
Whiteman Air Force Base

Weather History for KSZL - June, 2013

Change the Weather History Date:

Friday, June 7, 2013

  Actual Average Record
Temperature  
Mean Temperature 63 °F -  
Max Temperature 74 °F 79 °F - (-1)
Min Temperature 53 °F 61 °F - (-1)
Degree Days  
Heating Degree Days 2    
Growing Degree Days 13 (Base 50)    
Moisture  
Dew Point 55 °F    
Average Humidity 78    
Maximum Humidity 100    
Minimum Humidity 45    
Precipitation  
Precipitation 0.00 in - - ()
Sea Level Pressure  
Sea Level Pressure 29.96 in    
Wind  
Wind Speed 3 mph (NNW)    
Max Wind Speed 13 mph    
Max Gust Speed 18 mph    
Visibility 10 miles    
Events      
Averages and records for this station are not official NWS values.
T = Trace of Precipitation, MM = Missing Value Source: NWS Daily Summary

Daily Weather History Graph

Daily Weather History Graph

Search for Another Location

Airport or City:

Trip Planner

Search our weather history database for the weather conditions in past years. The results will help you decide how hot, cold, wet, or windy it might be!

Date:

Astronomy

Jun. 07, 2013 Rise Set
Actual Time 5:49 AM CDT 8:37 PM CDT
Civil Twilight 5:17 AM CDT 9:08 PM CDT
Nautical Twilight 4:38 AM CDT 9:48 PM CDT
Astronomical Twilight 3:52 AM CDT 10:33 PM CDT
Moon 5:11 AM CDT (6/7) 7:52 PM CDT (6/7)
Length of Visible Light 15h 51m
Length of Day
14h 47m
Waning Crescent, 1% of the Moon is Illuminated
Jun 7
Waning Crescent
Jun 8
New
Jun 16
First Quarter
Jun 23
Full
Jun 29
Last Quarter

Hourly Weather History & Observations

Time (CDT) Temp. Dew Point Humidity Pressure Visibility Wind Dir Wind Speed Gust Speed Precip Events Conditions
12:58 AM 56.8 °F 55.9 °F 97% 29.95 in 10.0 mi Calm Calm - N/A   Clear
1:58 AM 55.9 °F 55.8 °F 99% 29.95 in 10.0 mi West 1.2 mph - N/A   Clear
2:58 AM 54.9 °F 54.7 °F 99% 29.95 in 10.0 mi Calm Calm - N/A   Clear
3:58 AM 53.4 °F 53.4 °F 100% 29.95 in 10.0 mi Calm Calm - N/A   Clear
4:58 AM 54.5 °F 54.5 °F 100% 29.95 in 10.0 mi West 2.3 mph - N/A   Clear
5:58 AM 54.3 °F 54.3 °F 100% 29.97 in 10.0 mi NNW 2.3 mph - N/A   Clear
6:58 AM 54.7 °F 54.7 °F 100% 29.98 in 10.0 mi North 2.3 mph - N/A   Clear
7:58 AM 57.9 °F 57.9 °F 100% 29.99 in 10.0 mi NNW 2.3 mph - N/A   Overcast
8:58 AM 62.8 °F 59.9 °F 90% 30.00 in 10.0 mi North 4.6 mph - N/A   Partly Cloudy
9:58 AM 64.9 °F 57.9 °F 78% 30.00 in 10.0 mi NNW 8.1 mph - N/A   Mostly Cloudy
10:58 AM 68.0 °F 57.6 °F 69% 30.00 in 10.0 mi Variable 6.9 mph - N/A   Partly Cloudy
11:58 AM 68.7 °F 55.6 °F 63% 29.99 in 10.0 mi North 11.5 mph - N/A   Mostly Cloudy
12:58 PM 71.2 °F 55.0 °F 56% 29.98 in 10.0 mi North 12.7 mph - N/A   Scattered Clouds
1:58 PM 72.5 °F 53.8 °F 52% 29.96 in 10.0 mi North 10.4 mph - N/A   Partly Cloudy
2:58 PM 71.8 °F 53.2 °F 52% 29.95 in 10.0 mi NNW 8.1 mph 18.4 mph N/A   Clear
3:58 PM 73.8 °F 54.1 °F 50% 29.94 in 10.0 mi North 11.5 mph - N/A   Scattered Clouds
4:58 PM 73.4 °F 52.0 °F 47% 29.94 in 10.0 mi North 9.2 mph - N/A   Partly Cloudy
5:58 PM 73.8 °F 51.1 °F 45% 29.93 in 10.0 mi North 8.1 mph - N/A   Clear
6:58 PM 72.3 °F 52.9 °F 50% 29.92 in 10.0 mi North 6.9 mph - N/A   Scattered Clouds
7:58 PM 68.4 °F 54.9 °F 62% 29.92 in 10.0 mi NNE 8.1 mph - N/A   Clear
8:58 PM 64.8 °F 54.9 °F 70% 29.93 in 10.0 mi Calm Calm - N/A   Clear
9:44 PM 60.8 °F 57.2 °F 88% 29.94 in 10.0 mi Calm Calm - N/A   Light Drizzle
9:53 PM 60.8 °F 57.2 °F 88% 29.94 in 10.0 mi Calm Calm - N/A   Clear
9:58 PM 60.3 °F 57.9 °F 92% 29.94 in 10.0 mi Calm Calm - 0.00 in   Clear
10:58 PM 59.4 °F 55.0 °F 86% 29.95 in 10.0 mi Calm Calm - N/A   Clear
11:58 PM 56.7 °F 56.3 °F 99% 29.96 in 10.0 mi SSW 2.3 mph - N/A   Clear